FW2588 Weather Reports


time (UTC)temp
C
wind
direction
speed
KPH
gust
KPH
rain 1hr
cm
rain 24hr
cm
rain mn
cm
humidity
%
barometer
mb
20260505083035 6 258 0.0 0.0 0.00 0.00 0.00 92 1013.4
20260505081532 6 258 0.0 0.0 0.00 0.00 0.00 92 1013.3
20260505080033 6 258 0.0 0.0 0.00 0.00 0.00 92 1013.3
20260505074534 6 258 0.0 0.0 0.00 0.00 0.00 91 1013.1
20260505073038 7 258 0.0 0.0 0.00 0.00 0.00 91 1013.1
20260505071526 7 258 0.0 0.0 0.00 0.00 0.00 90 1013.1
20260505070036 7 258 0.0 0.0 0.00 0.00 0.00 90 1013.0
20260505064521 7 258 0.0 0.0 0.00 0.00 0.00 90 1013.2
20260505063021 7 146 0.0 0.0 0.00 0.00 0.00 89 1013.3
20260505061523 8 318 0.0 0.0 0.00 0.00 0.00 88 1013.1
20260505060015 8 318 0.0 0.0 0.00 0.00 0.00 87 1013.2
20260505054512 8 318 0.0 0.0 0.00 0.00 0.00 86 1013.3
20260505053014 8 318 0.0 0.0 0.00 0.00 0.00 86 1013.3
20260505051510 9 318 0.0 0.0 0.00 0.00 0.00 84 1013.4
20260505041600 11 337 0.0 0.0 0.00 0.00 0.00 77 1013.3
20260505040055 11 337 0.0 0.0 0.00 0.00 0.00 76 1013.4
20260505034553 12 337 0.0 0.0 0.00 0.00 0.00 75 1013.4
20260505033053 12 337 0.0 0.0 0.00 0.00 0.00 73 1013.6
20260505031602 13 337 0.0 0.0 0.00 0.00 0.00 71 1013.6
20260505030051 13 336 0.0 0.0 0.00 0.00 0.00 68 1013.8
20260505024559 15 336 0.0 0.0 0.00 0.00 0.00 64 1013.7
20260505023050 15 336 0.0 0.0 0.00 0.00 0.00 63 1013.7
20260505021553 15 336 0.0 0.0 0.00 0.00 0.00 61 1013.5
20260505020049 16 336 0.0 0.0 0.00 0.00 0.00 59 1013.5
20260505014604 16 49 0.0 0.0 0.00 0.00 0.00 59 1013.1
20260505013051 16 360 0.0 0.0 0.00 0.00 0.00 58 1013.1
20260505011556 17 360 0.0 0.0 0.00 0.00 0.00 57 1012.7
20260505010047 17 360 0.0 0.0 0.00 0.00 0.00 57 1012.7
20260505004546 18 360 0.0 0.0 0.00 0.00 0.00 53 1012.5
20260505003046 18 360 0.0 0.0 0.00 0.00 0.00 51 1012.2
20260505001545 19 360 0.0 0.0 0.00 0.00 0.00 49 1012.0
20260505000054 20 360 0.0 0.0 0.00 0.00 0.00 48 1011.9
20260504234548 20 360 0.0 0.0 0.00 0.00 0.00 47 1011.8
20260504233103 21 148 0.0 0.0 0.00 0.00 0.00 47 1011.7
20260504231544 21 150 0.0 0.0 0.00 0.00 0.00 46 1011.6
20260504230042 21 157 0.0 0.0 0.00 0.00 0.00 44 1011.4
20260504224542 21 126 0.0 0.0 0.00 0.00 0.00 44 1011.4
20260504223056 22 136 0.0 1.6 0.00 0.00 0.00 42 1011.5
20260504221539 22 127 0.0 0.0 0.00 0.00 0.00 42 1011.5
20260504220038 22 117 0.0 0.0 0.00 0.00 0.00 41 1011.5
20260504214536 22 101 1.6 16.1 0.00 0.00 0.00 40 1011.5
20260504213049 22 360 4.8 16.1 0.00 0.00 0.00 39 1011.6
20260504211536 23 121 1.6 11.3 0.00 0.00 0.00 37 1011.6
20260504210038 23 156 3.2 14.5 0.00 0.00 0.00 36 1011.7
20260504204542 24 305 4.8 16.1 0.00 0.00 0.00 32 1011.8
20260504203130 24 140 1.6 8.0 0.00 0.00 0.00 32 1012.0
20260504201527 24 51 3.2 17.7 0.00 0.00 0.00 30 1012.2
20260504200026 24 143 0.0 0.0 0.00 0.00 0.00 31 1012.4
20260504194523 24 79 0.0 0.0 0.00 0.00 0.00 38 1012.7
20260504193020 24 131 0.0 0.0 0.00 0.00 0.00 34 1012.9
20260504191517 24 142 0.0 1.6 0.00 0.00 0.00 36 1013.3
20260504190016 23 120 0.0 0.0 0.00 0.00 0.00 36 1013.5
20260504184511 23 115 0.0 0.0 0.00 0.00 0.00 38 1013.7
20260504183009 23 83 0.0 0.0 0.00 0.00 0.00 36 1013.8
20260504181512 22 312 0.0 1.6 0.00 0.00 0.00 40 1013.9
20260504180003 22 72 6.4 14.5 0.00 0.00 0.00 37 1014.3
20260504174618 21 158 0.0 9.7 0.00 0.00 0.00 42 1014.6
20260504173100 21 307 0.0 1.6 0.00 0.00 0.00 40 1014.7
20260504171554 21 52 0.0 1.6 0.00 0.00 0.00 40 1015.0